This is the latest recevied weather packets stored in our database for station/object HP1CDW-11. If no packets are shown the sender has not sent any weather packets the latest 10 day(s).
| Time | Temp. | Humidity | Pressure | Rain* | Wind** | Luminosity | Snow |
|---|---|---|---|---|---|---|---|
| 1777766287 | 29.44° C | 58% | 1011.1 hPa | - | - | - | - |
| 1777765687 | 29.44° C | 58% | 1011.2 hPa | - | - | - | - |
| 1777765087 | 29.44° C | 58% | 1011.1 hPa | - | - | - | - |
| 1777764487 | 29.44° C | 58% | 1011.1 hPa | - | - | - | - |
| 1777763886 | 29.44° C | 58% | 1011.2 hPa | - | - | - | - |
| 1777763286 | 29.44° C | 58% | 1011.2 hPa | - | - | - | - |
| 1777762686 | 29.44° C | 58% | 1011.2 hPa | - | - | - | - |
| 1777762085 | 29.44° C | 58% | 1011.2 hPa | - | - | - | - |
| 1777761485 | 29.44° C | 58% | 1011 hPa | - | - | - | - |
| 1777760884 | 29.44° C | 58% | 1010.9 hPa | - | - | - | - |
| 1777760284 | 28.89° C | 59% | 1010.9 hPa | - | - | - | - |
| 1777759684 | 28.89° C | 59% | 1011 hPa | - | - | - | - |
| 1777759084 | 29.44° C | 61% | 1011 hPa | - | - | - | - |
| 1777758483 | 28.89° C | 62% | 1010.9 hPa | - | - | - | - |
| 1777757883 | 28.89° C | 62% | 1011.3 hPa | - | - | - | - |
| 1777757282 | 28.33° C | 63% | 1011.1 hPa | - | - | - | - |
| 1777756682 | 27.22° C | 64% | 1010.9 hPa | - | - | - | - |
| 1777756082 | 22.78° C | 73% | 1011.1 hPa | - | - | - | - |
| 1777755482 | 18.89° C | 57% | 1011 hPa | - | - | - | - |
| 1777754881 | 19.44° C | 57% | 1010.6 hPa | - | - | - | - |
| 1777754281 | 18.89° C | 54% | 1010.8 hPa | - | - | - | - |
| 1777753681 | 18.89° C | 55% | 1010.6 hPa | - | - | - | - |
| 1777753080 | 18.33° C | 57% | 1010.3 hPa | - | - | - | - |
| 1777752480 | 19.44° C | 57% | 1009.8 hPa | - | - | - | - |
| 1777751880 | 19.44° C | 55% | 1009.6 hPa | - | - | - | - |
* Rain since midnight (hover to see other rain measurements)
** Current wind speed in m/s (hover to see current wind gust speed)